Miscellaneous Local Product
Issued by NWS Hastings, NE

Home | Current Version | Previous Version | Text Only | Print | Product List | Glossary On
Versions: 1 2 3 4 5 6 7 8 9 10 11 12 13 14 15 16 17 18 19 20 21 22 23 24 25 26 27 28 29 30 31 32 33 34 35 36 37 38 39 40 41 42 43 44 45 46 47 48 49 50
327
AXUS43 KGID 101302
MISGRI

GID CWA HOURLY WEATHER ROUNDUP
NATIONAL WEATHER SERVICE HASTINGS NE
700 AM CST WED FEB 10 2016

NOTE: "FAIR" INDICATES FEW OR NO CLOUDS BELOW 12,000 FEET WITH NO
SIGNIFICANT WEATHER AND/OR OBSTRUCTIONS TO VISIBILITY.

...SOUTH CENTRAL NEBRASKA...

CITY           SKY/WX    TMP DP  RH WIND       PRES   REMARKS
GRAND ISLAND   CLOUDY    21  18  88 SW7       29.94F WCI  12
HASTINGS       CLOUDY    26  21  81 SW6       29.94F WCI  19
ORD            CLOUDY    18  16  92 CALM      29.89F
YORK           CLEAR     23  19  86 S12       29.96F WCI  12
AURORA         CLEAR     24  21  87 S9        29.94F WCI  15
LEXINGTON      CLOUDY    24  21  89 NW8       29.96F WCI  15
HOLDREGE       CLOUDY    30  24  78 W12       29.97S WCI  21
HEBRON         CLEAR     24  19  80 CALM      30.01F

...NEBRASKA PANHANDLE...

CITY           SKY/WX    TMP DP  RH WIND       PRES   REMARKS
CHADRON        CLOUDY    30  24  78 W6        29.99S WCI  24
ALLIANCE       CLOUDY    31  23  72 W13       29.99F WCI  21
SCOTTSBLUFF    CLOUDY    36  25  64 NW16      30.03F WCI  26
SIDNEY         CLOUDY    25  19  78 SW7       30.05F WCI  17

...WESTERN AND NORTH CENTRAL NEBRASKA...

CITY           SKY/WX    TMP DP  RH WIND       PRES   REMARKS
VALENTINE      CLEAR     33  27  78 W13       29.88F WCI  24
AINSWORTH      CLEAR     33  28  83 W6        29.88S WCI  27
ONEILL         CLOUDY    25  23  92 S5        29.88F WCI  19
BROKEN BOW     CLEAR     31  24  75 W8        29.90F WCI  23
IMPERIAL       CLOUDY    35  23  61 W16       30.03S WCI  25
NORTH PLATTE   CLEAR     27  22  81 W9        29.97F WCI  18
MCCOOK         CLOUDY    28  23  81 W10       30.02F WCI  19

...EASTERN NEBRASKA...

CITY           SKY/WX    TMP DP  RH WIND       PRES   REMARKS
NORFOLK        CLOUDY    25  20  81 S6        29.92F WCI  18
SO SIOUX CITY  CLOUDY    23  16  74 SE13      30.00F WCI  11
TEKAMAH        CLOUDY   N/A N/A N/A SE13      30.01F
COLUMBUS       CLOUDY    25  12  58 SE6       29.95F WCI  18
ALBION         CLOUDY    24  20  85 SE5       29.92F WCI  18
OMAHA EPPLEY   CLOUDY    25  19  78 SE10      30.04F WCI  15
OFFUTT AFB     MOCLDY    26  20  78 SE7       30.03F WCI  18
MILLARD        CLOUDY    26  19  74 SE6       30.03F WCI  20
LINCOLN        CLOUDY    27  17  66 S10       30.01F WCI  17
NEBRASKA CITY  CLOUDY    26  19  75 S13       30.03F WCI  15
BEATRICE       CLOUDY    27  15  61 S12       30.03S WCI  16
FALLS CITY     CLOUDY    26  17  68 S6        30.08F WCI  19

...NORTHERN KANSAS...

CITY           SKY/WX    TMP DP  RH WIND       PRES   REMARKS
GOODLAND       CLOUDY    35  20  54 W12       30.07F WCI  27
HILL CITY      CLEAR     34  25  69 W9        30.03F WCI  27
NORTON         SUNNY     32  23  69 W9        30.00  WCI  24
PHILLIPSBURG   CLOUDY    25  25 100 CALM      30.01F
SMITH CENTER   CLEAR     23  21  93 CALM      30.01F
BELOIT         CLEAR     25  19  80 S7        30.03F WCI  17
HAYS           CLEAR     30  18  59 W6        30.05F WCI  24
RUSSELL        CLEAR     28  25  88 SW12      30.03F WCI  18
CONCORDIA      CLEAR     25  18  74 SW16G26   30.01F WCI  12
SALINA         CLEAR     28  19  69 S13       30.09F WCI  17
TOPEKA         PTCLDY    26  13  57 S5        30.15F WCI  20



USA.gov is the U.S. government's official web portal to all federal, state and local government web resources and services.